Temperature
-2 -2 -2 -3 -3 -3 -3 -2 -2 -2 -2 -3 -3 -4 -4 -5 -5 -5 -5 -5 -4 -4 -4 -3 -3 -2 -1 -0 0 1 2 2 3 3 3 4 4 4 5 5 5 5 5 5
-3 -2 -2 -3 -4 -3 -4 -3 -3 -3 -3 -4 -5 -5 -5 -5 -6 -6 -6 -5 -5 -5 -4 -4 -3 -3 -2 -1 -0 0 1 2 2 3 3 3 3 3 4 4 4 5 5 5
-2 -3 -3 -3 -4 -4 -4 -4 -4 -4 -4 -5 -5 -5 -6 -6 -6 -7 -6 -6 -6 -5 -5 -5 -4 -4 -3 -2 -1 -0 0 1 1 2 2 2 3 3 3 3 4 4 4 4
-3 -3 -4 -4 -5 -5 -5 -5 -6 -6 -5 -6 -6 -6 -6 -7 -7 -7 -7 -7 -6 -6 -6 -5 -5 -4 -3 -3 -2 -1 -0 0 1 1 1 2 2 2 2 2 3 3 3 3
-3 -4 -4 -4 -5 -6 -6 -5 -6 -6 -6 -7 -7 -6 -6 -7 -8 -8 -8 -7 -7 -7 -6 -6 -5 -5 -4 -3 -2 -2 -1 -1 -0 0 1 1 1 1 2 2 2 2 2 2
-4 -4 -4 -5 -6 -7 -6 -5 -6 -7 -7 -7 -7 -5 -5 -8 -8 -8 -8 -7 -7 -7 -6 -6 -6 -5 -4 -4 -3 -3 -2 -1 -1 -1 -0 0 0 1 1 1 1 1 2 2
-5 -4 -4 -6 -7 -6 -5 -6 -7 -8 -8 -8 -8 -8 -8 -9 -9 -8 -8 -8 -7 -7 -7 -7 -6 -6 -5 -5 -4 -3 -3 -2 -2 -1 -1 -1 -0 -0 0 0 1 1 1 1
-5 -5 -5 -7 -7 -6 -6 -8 -8 -8 -8 -9 -9 -9 -9 -9 -9 -9 -8 -8 -8 -7 -7 -7 -6 -6 -6 -5 -5 -4 -3 -3 -2 -2 -2 -1 -1 -1 -1 -0 -0 -0 0 0
-6 -5 -6 -8 -7 -8 -8 -8 -8 -9 -9 -9 -10 -10 -9 -9 -9 -9 -8 -8 -8 -8 -8 -7 -7 -7 -6 -6 -5 -5 -4 -4 -3 -3 -3 -2 -2 -2 -1 -1 -1 -1 -1 -1
-7 -6 -7 -8 -8 -8 -9 -9 -9 -9 -10 -10 -10 -10 -10 -10 -9 -9 -9 -9 -8 -8 -8 -8 -7 -7 -7 -6 -6 -6 -5 -5 -4 -4 -3 -3 -3 -2 -2 -2 -2 -2 -2 -1
-7 -7 -8 -8 -8 -9 -9 -9 -9 -10 -10 -10 -10 -10 -10 -10 -10 -9 -9 -9 -9 -9 -8 -8 -8 -7 -7 -7 -7 -6 -6 -5 -5 -5 -4 -4 -4 -3 -3 -2 -2 -2 -2 -2
-6 -7 -8 -8 -8 -9 -9 -10 -10 -10 -10 -10 -10 -10 -10 -10 -10 -10 -9 -9 -9 -9 -9 -8 -8 -8 -7 -7 -7 -7 -6 -6 -6 -5 -5 -5 -4 -4 -3 -3 -3 -3 -3 -3
-9 -9 -9 -9 -9 -9 -10 -10 -10 -10 -11 -11 -10 -10 -10 -10 -10 -10 -10 -9 -9 -9 -9 -8 -8 -8 -8 -8 -7 -7 -7 -6 -6 -6 -6 -5 -5 -5 -4 -4 -4 -3 -3 -3
-9 -9 -9 -9 -10 -10 -10 -10 -11 -11 -11 -11 -11 -11 -10 -10 -10 -10 -10 -10 -9 -9 -9 -9 -8 -8 -8 -8 -8 -8 -7 -7 -6 -6 -6 -6 -6 -5 -5 -5 -4 -4 -4 -4
-9 -10 -10 -10 -10 -10 -10 -11 -11 -11 -11 -11 -11 -11 -11 -11 -11 -10 -10 -10 -10 -9 -9 -9 -9 -9 -9 -8 -8 -8 -8 -7 -7 -7 -7 -6 -6 -6 -6 -6 -5 -5 -5 -5
-10 -10 -10 -10 -10 -11 -11 -11 -11 -11 -11 -11 -11 -11 -11 -11 -11 -11 -10 -10 -10 -10 -10 -9 -9 -9 -9 -9 -9 -8 -8 -8 -8 -7 -7 -7 -7 -6 -6 -6 -6 -6 -6 -5
-10 -10 -11 -11 -11 -11 -11 -11 -11 -11 -11 -11 -11 -11 -11 -11 -11 -11 -11 -11 -11 -10 -10 -10 -10 -9 -9 -9 -9 -9 -9 -8 -8 -8 -8 -8 -7 -7 -7 -7 -7 -7 -6 -6
-10 -10 -11 -11 -11 -11 -11 -11 -11 -12 -12 -11 -11 -11 -11 -11 -11 -11 -11 -11 -11 -11 -10 -10 -10 -10 -10 -9 -9 -9 -9 -9 -9 -9 -8 -8 -8 -8 -8 -7 -7 -7 -7 -7
-10 -11 -11 -11 -11 -12 -12 -12 -12 -12 -12 -12 -12 -12 -12 -12 -12 -12 -12 -11 -11 -11 -11 -11 -10 -10 -10 -10 -10 -10 -9 -9 -9 -9 -9 -9 -8 -8 -8 -8 -8 -8 -8 -7
-11 -11 -11 -11 -11 -12 -12 -12 -12 -12 -12 -12 -12 -12 -12 -12 -12 -12 -12 -12 -12 -12 -11 -11 -11 -11 -10 -10 -10 -10 -10 -10 -10 -10 -9 -9 -9 -9 -9 -8 -8 -8 -8 -8
-11 -11 -11 -12 -12 -12 -12 -12 -12 -12 -12 -12 -12 -12 -12 -12 -12 -12 -12 -12 -12 -12 -12 -11 -11 -11 -11 -11 -11 -11 -10 -10 -10 -10 -10 -10 -9 -9 -9 -9 -9 -9 -8 -8
-11 -12 -12 -12 -12 -12 -12 -12 -12 -12 -12 -12 -12 -12 -12 -12 -12 -12 -12 -12 -12 -12 -12 -12 -12 -12 -11 -11 -11 -11 -11 -11 -10 -10 -10 -10 -10 -10 -9 -9 -9 -9 -9 -9
-12 -12 -12 -12 -12 -12 -12 -12 -12 -12 -12 -12 -12 -13 -13 -13 -13 -13 -13 -12 -12 -12 -12 -12 -12 -12 -12 -12 -11 -11 -11 -11 -11 -11 -11 -10 -10 -10 -10 -10 -10 -9 -9 -9
-12 -12 -12 -12 -12 -12 -12 -12 -13 -13 -13 -13 -13 -13 -13 -13 -13 -13 -13 -13 -13 -12 -12 -12 -12 -12 -12 -12 -12 -11 -11 -11 -11 -11 -11 -11 -11 -10 -10 -10 -10 -10 -10 -9
-13 -13 -13 -13 -13 -13 -13 -13 -13 -13 -13 -13 -13 -13 -13 -13 -13 -13 -13 -13 -13 -13 -12 -12 -12 -12 -12 -12 -12 -12 -12 -12 -11 -11 -11 -11 -11 -11 -11 -11 -10 -10 -10 -10
-13 -13 -13 -13 -13 -13 -13 -13 -13 -13 -13 -13 -13 -13 -13 -13 -13 -13 -13 -13 -13 -13 -13 -12 -12 -12 -12 -12 -12 -12 -12 -12 -12 -12 -12 -11 -11 -11 -11 -11 -11 -10 -10 -10
-13 -13 -13 -13 -13 -13 -13 -14 -14 -14 -14 -14 -14 -14 -14 -13 -13 -13 -13 -13 -13 -13 -13 -13 -13 -13 -13 -12 -12 -12 -12 -12 -12 -12 -12 -12 -12 -11 -11 -11 -11 -11 -11 -10
Wind_Speed
4 4 3 4 6 5 3 3 3 5 5 8 10 11 11 12 11 11 11 11 11 11 11 11 10 10 9 8 8 6 4 3 2 2 2 2 2 3 3 4 5 5 5 5
3 2 3 4 6 5 4 4 5 6 5 8 10 9 10 11 12 11 12 13 12 12 12 11 11 10 10 9 8 7 5 3 3 2 1 1 1 2 3 3 4 5 5 5
3 4 3 2 5 4 3 4 4 5 6 9 10 11 11 11 11 11 13 13 13 12 11 11 11 10 10 9 8 7 5 4 3 2 1 1 1 2 3 3 4 4 5 5
3 2 2 1 3 4 4 4 4 5 8 9 11 10 8 8 10 12 13 14 14 12 12 11 10 10 9 9 8 7 6 4 3 2 2 1 1 1 2 2 3 4 4 5
2 2 3 0 3 5 4 4 5 7 10 11 11 7 5 9 11 12 12 12 12 12 11 11 10 10 9 8 8 7 7 6 4 3 2 2 2 2 2 2 2 3 3 4
1 2 2 2 6 7 4 3 6 8 9 10 10 6 7 11 13 13 13 12 12 11 11 10 10 9 8 8 8 8 8 7 5 4 3 2 2 2 2 2 2 2 3 3
2 3 2 3 6 4 2 4 8 8 8 8 6 7 10 12 12 12 12 12 12 11 10 10 10 9 8 8 9 9 9 7 6 4 3 3 2 2 2 2 2 2 2 2
2 2 2 4 3 2 4 6 7 7 7 8 9 10 10 11 11 12 12 13 13 11 10 10 10 9 9 9 10 9 8 6 5 4 4 2 2 2 2 2 2 2 2 2
3 2 3 2 3 3 4 7 7 7 8 8 9 9 10 11 11 11 12 12 11 11 11 10 10 9 9 10 10 9 7 6 5 4 3 2 2 2 1 2 2 2 2 2
4 5 5 5 5 6 6 7 8 8 8 8 9 10 10 10 10 11 11 11 11 11 11 11 11 10 9 9 9 8 6 6 5 4 3 2 2 2 1 1 2 2 2 2
6 7 7 5 5 7 7 7 8 8 7 7 8 9 10 9 10 10 10 10 10 10 10 11 11 10 9 9 8 7 6 5 5 4 3 2 2 2 2 2 2 2 2 2
5 5 5 7 6 6 6 7 7 8 8 8 8 9 9 9 9 9 10 10 10 10 10 11 11 10 9 9 8 7 5 5 4 4 3 2 2 2 3 2 3 3 2 2
6 6 7 8 7 5 6 7 8 7 8 8 8 8 9 9 9 9 10 10 11 11 11 11 10 10 9 9 8 6 6 5 4 4 3 2 2 1 2 3 3 3 2 1
6 5 6 5 6 6 6 7 7 7 7 7 7 7 8 9 9 10 10 10 10 10 10 10 9 9 9 9 8 7 6 6 5 4 3 2 2 1 1 1 1 2 2 2
6 6 6 6 6 6 6 6 6 6 7 7 7 7 8 9 9 10 10 10 10 9 9 9 9 10 9 8 8 7 6 5 4 4 3 2 2 1 1 1 1 2 2 2
5 5 5 6 6 6 6 6 6 7 7 8 7 7 8 9 9 9 9 9 9 9 9 9 9 10 9 8 7 6 5 7 5 3 3 2 2 1 1 1 1 1 2 2
4 5 5 6 7 7 7 6 7 7 7 7 8 8 8 8 8 8 8 8 8 8 8 9 9 9 9 8 7 5 5 5 6 3 3 2 2 2 1 1 1 1 2 2
6 7 6 7 7 7 8 7 7 7 7 7 8 7 7 7 8 9 9 9 8 8 8 8 9 9 8 8 6 5 5 4 4 3 3 2 2 2 1 1 1 2 2 2
5 6 6 6 6 6 7 7 7 7 7 6 7 7 7 7 8 8 8 8 8 8 9 9 11 9 8 8 8 5 4 4 4 3 3 3 3 2 2 1 1 2 2 2
5 5 6 6 6 5 6 6 6 6 6 6 6 6 7 7 7 8 7 7 6 7 8 10 9 8 7 7 7 5 4 4 4 4 3 3 2 2 2 2 2 2 2 2
5 6 6 6 6 6 6 6 6 6 6 5 5 6 7 7 7 6 6 6 7 8 8 10 7 7 6 7 7 5 4 4 4 4 3 3 3 3 2 2 2 2 2 2
5 5 6 6 6 6 6 5 5 6 6 6 6 6 6 7 7 6 6 5 7 10 8 6 6 8 9 8 5 4 4 4 4 3 3 3 3 3 3 3 3 3 3 2
5 5 6 6 6 6 6 5 5 5 5 6 6 6 6 6 5 6 6 5 6 9 8 6 8 11 11 6 5 4 5 4 4 4 4 4 3 3 4 4 3 3 3 3
5 5 5 5 5 5 5 5 5 5 5 6 5 5 5 5 5 5 5 9 10 10 7 8 11 11 9 5 4 4 5 4 4 4 4 4 4 4 4 4 4 4 4 4
5 5 5 4 4 4 5 6 5 5 5 4 5 5 4 4 5 6 6 7 9 9 7 8 10 10 7 5 5 5 5 5 5 4 4 4 4 4 4 4 4 4 4 4
4 4 4 4 4 4 4 4 4 4 4 5 5 5 5 5 5 5 5 6 8 8 7 6 6 7 5 5 5 5 5 5 5 4 4 4 5 5 4 4 5 4 4 4
4 4 4 4 3 3 4 4 4 5 5 5 6 6 5 5 5 5 6 5 5 5 5 5 5 5 5 5 5 5 5 5 5 5 5 4 4 4 5 5 5 5 5 5
Wind_Direction
303 312 334 351 349 355 3 331 301 307 310 332 340 337 338 344 351 356 357 354 352 349 347 347 347 347 346 342 339 333 325 316 296 278 247 226 218 206 197 192 192 191 192 193
286 306 337 3 359 348 338 334 321 318 317 335 334 338 342 347 350 351 350 347 344 343 344 344 343 341 340 340 336 328 317 316 313 302 275 242 229 205 194 190 190 188 190 190
291 310 292 320 345 338 345 343 322 312 320 333 336 338 340 344 348 349 345 342 339 338 338 336 336 335 334 332 330 326 323 317 317 310 291 278 279 211 199 198 192 189 191 194
299 313 269 42 29 349 332 354 3 340 333 334 328 322 329 349 348 344 340 338 336 335 333 331 331 332 330 329 329 332 332 326 322 317 301 287 283 234 216 212 202 199 197 199
284 286 276 285 4 348 312 317 0 337 332 337 336 323 339 357 347 337 333 331 330 329 328 328 332 332 332 333 334 335 333 329 328 318 296 280 280 266 235 225 215 212 207 203
286 285 295 358 342 327 280 282 2 339 330 333 338 330 330 337 333 332 332 332 331 330 330 333 334 334 336 335 335 333 328 323 321 318 296 279 278 278 252 230 216 207 207 208
282 267 281 350 335 323 280 326 333 326 322 323 318 305 312 320 325 329 331 332 333 331 333 334 334 335 336 336 333 326 322 321 319 316 306 289 287 285 254 223 207 200 195 201
269 258 283 10 3 339 312 321 317 317 317 311 306 308 315 320 325 329 331 332 333 333 333 335 337 336 335 333 327 323 321 321 318 316 312 305 299 290 255 207 190 195 191 186
247 270 324 295 282 296 311 306 311 312 311 308 306 307 314 318 322 325 328 329 331 331 330 334 337 336 331 328 326 324 325 325 320 317 314 312 302 290 259 217 197 199 202 200
265 268 284 284 278 294 301 299 303 304 303 303 302 305 311 314 319 323 326 327 328 329 329 331 333 332 327 325 324 324 324 324 321 320 322 327 318 299 277 247 218 207 211 213
264 281 296 277 283 296 299 300 303 307 305 302 302 304 308 310 315 319 321 323 325 326 325 325 327 329 331 330 329 327 324 321 321 321 325 340 341 325 296 288 271 253 235 222
267 282 280 289 300 299 296 299 302 304 305 306 304 302 307 309 312 315 318 322 324 324 324 325 326 328 332 332 330 328 324 325 323 322 323 323 326 343 1 335 341 326 309 279
268 284 279 286 296 297 294 297 300 297 294 299 301 301 304 306 310 313 317 321 323 322 322 324 326 328 331 332 332 332 328 325 322 320 319 314 311 317 336 1 15 14 8 7
270 279 279 287 294 300 298 299 300 299 298 297 298 301 304 305 309 312 316 319 319 320 322 326 330 332 334 335 333 332 329 327 323 318 317 312 307 310 311 319 340 353 11 36
271 264 271 291 295 299 304 306 306 305 307 307 305 304 307 308 308 311 315 319 321 324 328 331 332 333 334 334 331 330 330 329 326 326 327 321 319 330 337 338 338 339 350 10
293 279 275 282 290 301 306 306 303 304 308 309 309 309 309 308 307 311 317 323 325 325 327 330 329 330 331 332 331 329 329 334 330 332 332 330 335 342 342 347 345 343 340 345
288 293 293 294 294 296 297 296 295 298 303 305 307 309 311 312 314 317 320 323 320 317 321 325 326 328 331 332 329 327 326 329 334 333 332 333 331 327 324 327 322 322 327 346
267 277 282 286 288 290 294 297 297 300 302 304 308 310 313 314 314 316 319 322 323 324 326 328 328 329 332 334 332 328 327 330 333 332 329 328 325 321 321 318 317 314 321 337
284 283 286 286 286 288 293 296 298 299 302 306 308 308 308 308 309 313 318 322 325 326 331 331 332 333 332 335 335 331 333 332 332 333 330 328 328 327 320 309 304 308 317 331
299 298 297 296 296 292 293 298 301 301 304 306 306 307 310 312 313 314 316 315 315 316 319 324 327 327 328 331 334 329 329 327 326 325 324 323 320 317 315 309 306 309 317 324
302 303 302 300 299 297 295 296 297 299 303 304 301 302 304 308 312 314 315 317 322 325 323 325 329 327 327 329 329 327 327 324 321 318 315 314 313 311 307 304 302 300 301 303
300 301 302 303 303 303 303 301 296 298 303 304 302 302 306 311 316 315 308 304 314 324 327 324 325 327 330 328 327 327 324 319 314 310 308 306 303 300 298 297 293 290 288 287
298 299 301 302 301 302 306 305 300 298 299 302 303 304 305 306 310 310 313 318 319 322 324 320 324 328 331 332 328 325 323 318 312 307 303 301 296 292 290 289 286 283 281 280
300 302 302 303 303 301 306 310 307 302 298 297 298 300 303 306 307 302 300 313 322 322 320 322 326 329 336 335 328 324 319 313 307 304 301 298 293 289 286 284 282 279 276 277
298 298 299 302 302 300 301 306 309 309 308 308 309 310 305 298 298 306 309 312 319 323 320 325 331 333 334 325 323 319 315 308 304 302 298 297 295 292 287 284 281 278 276 274
296 296 294 291 289 293 300 304 307 310 312 313 314 314 312 308 305 307 309 314 316 320 321 320 323 326 323 320 317 314 311 311 313 310 303 298 294 289 285 283 283 280 278 276
296 297 298 301 302 303 303 303 303 306 308 307 307 311 313 314 313 315 316 315 317 317 316 317 318 317 315 314 313 311 309 308 307 303 301 297 294 291 289 287 285 283 282 279
Height
1517 1516 1515 1514 1513 1511 1509 1506 1501 1500 1500 1502 1502 1501 1498 1494 1490 1486 1483 1480 1477 1475 1472 1469 1466 1464 1463 1461 1461 1461 1462 1462 1463 1465 1466 1468 1469 1471 1473 1475 1477 1480 1482 1484
1517 1515 1514 1515 1515 1513 1512 1511 1508 1505 1505 1506 1505 1502 1498 1495 1491 1488 1485 1481 1478 1475 1472 1469 1466 1463 1461 1460 1459 1459 1459 1459 1460 1462 1463 1464 1466 1468 1470 1471 1473 1476 1477 1479
1513 1515 1513 1513 1517 1516 1515 1514 1512 1509 1510 1508 1505 1501 1499 1496 1492 1489 1486 1482 1478 1475 1472 1469 1466 1463 1461 1459 1458 1457 1457 1457 1458 1459 1460 1461 1463 1464 1466 1468 1469 1471 1473 1475
1515 1516 1517 1520 1520 1519 1517 1516 1516 1514 1512 1510 1507 1503 1500 1497 1494 1490 1486 1482 1478 1475 1471 1468 1466 1463 1460 1458 1457 1455 1455 1455 1456 1456 1457 1458 1460 1461 1463 1464 1466 1467 1469 1471
1517 1515 1513 1519 1520 1522 1519 1516 1517 1515 1512 1509 1506 1501 1498 1497 1494 1491 1487 1483 1479 1475 1471 1468 1465 1462 1459 1457 1455 1454 1453 1453 1453 1454 1454 1456 1457 1458 1459 1461 1462 1464 1465 1467
1520 1517 1516 1520 1522 1521 1521 1514 1516 1515 1513 1510 1507 1501 1498 1497 1494 1490 1486 1482 1478 1474 1470 1467 1463 1460 1458 1455 1454 1452 1451 1451 1451 1451 1452 1453 1454 1455 1456 1457 1459 1460 1462 1464
1523 1520 1516 1524 1523 1521 1519 1518 1518 1516 1513 1511 1509 1507 1503 1497 1493 1489 1485 1481 1477 1473 1469 1466 1462 1459 1457 1454 1452 1451 1450 1449 1449 1449 1449 1450 1451 1452 1453 1454 1455 1457 1458 1460
1525 1521 1522 1524 1523 1523 1522 1520 1518 1515 1513 1510 1507 1504 1500 1496 1492 1488 1484 1480 1476 1472 1468 1464 1461 1458 1455 1453 1451 1450 1448 1447 1447 1446 1447 1447 1448 1449 1450 1451 1452 1453 1455 1456
1528 1526 1525 1524 1523 1522 1521 1519 1516 1514 1511 1508 1505 1502 1498 1495 1491 1487 1483 1479 1475 1471 1467 1464 1460 1457 1454 1452 1450 1447 1445 1445 1444 1444 1444 1444 1445 1446 1447 1448 1449 1450 1452 1453
1528 1523 1523 1522 1521 1520 1518 1516 1514 1512 1509 1506 1503 1500 1497 1493 1489 1486 1482 1478 1475 1471 1467 1463 1459 1456 1453 1450 1448 1445 1444 1443 1442 1442 1442 1442 1442 1443 1444 1445 1446 1447 1448 1450
1526 1523 1521 1519 1518 1517 1515 1513 1511 1509 1506 1504 1501 1498 1495 1491 1488 1484 1481 1477 1474 1470 1466 1462 1458 1455 1452 1449 1446 1444 1442 1441 1440 1440 1439 1439 1440 1441 1441 1442 1443 1444 1446 1447
1521 1521 1520 1518 1516 1515 1512 1510 1508 1505 1503 1501 1499 1495 1492 1489 1486 1483 1479 1476 1472 1469 1465 1461 1457 1454 1451 1448 1446 1443 1441 1440 1439 1438 1438 1438 1438 1439 1439 1440 1441 1442 1443 1445
1521 1519 1518 1515 1513 1512 1510 1507 1505 1503 1500 1498 1495 1493 1490 1487 1484 1480 1477 1474 1470 1467 1463 1459 1456 1452 1450 1447 1444 1442 1440 1439 1438 1437 1437 1437 1437 1437 1437 1439 1439 1440 1441 1442
1518 1517 1514 1513 1511 1509 1507 1504 1502 1500 1497 1495 1492 1490 1487 1484 1481 1478 1475 1472 1468 1465 1461 1458 1454 1451 1449 1446 1443 1441 1439 1438 1437 1436 1436 1436 1436 1436 1436 1436 1437 1437 1439 1440
1515 1514 1512 1510 1508 1506 1504 1501 1499 1496 1494 1491 1489 1486 1484 1481 1478 1475 1473 1469 1466 1463 1459 1456 1453 1450 1448 1445 1443 1441 1439 1437 1436 1435 1435 1435 1435 1435 1435 1436 1436 1436 1437 1438
1512 1511 1509 1507 1505 1503 1501 1498 1496 1493 1491 1488 1486 1483 1481 1478 1476 1473 1470 1467 1464 1460 1458 1455 1452 1449 1447 1445 1442 1440 1438 1437 1436 1435 1434 1434 1434 1434 1434 1435 1435 1435 1436 1436
1509 1507 1506 1504 1502 1500 1498 1496 1493 1491 1488 1486 1483 1481 1478 1476 1473 1471 1468 1465 1462 1459 1456 1453 1451 1448 1446 1444 1441 1439 1438 1436 1435 1434 1434 1434 1433 1433 1433 1434 1434 1434 1435 1435
1507 1505 1504 1501 1499 1497 1495 1493 1491 1488 1486 1483 1481 1478 1476 1473 1471 1468 1465 1462 1460 1457 1455 1452 1449 1447 1445 1443 1441 1439 1437 1436 1435 1434 1433 1433 1433 1432 1432 1433 1433 1433 1433 1434
1504 1502 1500 1498 1496 1494 1492 1490 1488 1485 1483 1481 1478 1476 1474 1471 1469 1466 1463 1460 1458 1455 1453 1450 1448 1446 1444 1442 1440 1438 1436 1435 1434 1433 1433 1432 1432 1431 1431 1432 1432 1432 1432 1432
1501 1499 1497 1495 1493 1491 1489 1487 1485 1483 1481 1478 1476 1474 1471 1469 1467 1464 1461 1459 1456 1454 1451 1449 1446 1444 1442 1440 1439 1437 1435 1434 1433 1432 1431 1431 1430 1430 1430 1430 1430 1430 1430 1430
1498 1496 1494 1492 1490 1488 1486 1484 1482 1480 1478 1476 1474 1471 1469 1467 1464 1462 1459 1457 1455 1452 1450 1447 1445 1443 1441 1439 1437 1436 1434 1433 1432 1431 1430 1429 1429 1429 1429 1429 1429 1429 1429 1429
1495 1493 1491 1489 1487 1485 1483 1481 1479 1477 1475 1473 1471 1469 1467 1465 1462 1460 1458 1455 1453 1451 1448 1446 1444 1442 1440 1438 1436 1435 1433 1432 1431 1430 1429 1428 1427 1427 1427 1427 1427 1427 1426 1426
1493 1490 1488 1486 1484 1482 1481 1479 1477 1475 1473 1471 1469 1467 1465 1463 1460 1458 1456 1454 1451 1449 1447 1444 1443 1441 1439 1437 1435 1433 1432 1430 1429 1428 1427 1426 1426 1425 1425 1424 1424 1424 1424 1423
1490 1487 1485 1484 1482 1480 1478 1476 1474 1472 1470 1468 1467 1465 1463 1460 1458 1456 1454 1452 1450 1447 1445 1443 1441 1439 1437 1435 1433 1432 1430 1429 1428 1427 1426 1424 1424 1423 1422 1422 1421 1421 1421 1420
1486 1484 1483 1481 1479 1477 1475 1473 1472 1470 1468 1466 1464 1462 1460 1458 1456 1454 1452 1450 1448 1445 1443 1441 1439 1437 1435 1433 1432 1430 1429 1427 1426 1425 1423 1422 1421 1421 1420 1419 1418 1418 1417 1417
1483 1481 1479 1478 1476 1474 1473 1471 1469 1467 1465 1463 1462 1460 1458 1456 1454 1452 1450 1447 1445 1443 1441 1439 1437 1435 1434 1432 1430 1429 1427 1426 1424 1423 1421 1420 1419 1418 1417 1416 1416 1415 1414 1413
1480 1478 1476 1475 1473 1472 1470 1468 1466 1465 1463 1461 1459 1457 1456 1454 1452 1449 1447 1445 1443 1441 1439 1437 1435 1434 1432 1430 1428 1427 1425 1424 1422 1421 1419 1418 1417 1416 1414 1413 1412 1411 1411 1410